Date String (YYYY-MM-DD hh:mm:ss) UTC,Instrument flags,absolute air pressure of the measurement (hPa),sample flow rate (lpm),inlet stack bypass flow (lpm),air temperature of the measurement (°C),ambient temperature measured by the external sensor (°C),aerosol sample conditioner tube jacket temperature (°C),OPC LED temperature (°C),internal box temperature (°C),relative humidity of the measurement (%),span deviation,mass concentration of particles derived from Lorenz-Mie calculation of OPC scattering (μg/m³),mass concentration of particles derived from Lorenz-Mie calculation of OPC scattering (μg/m³),mass concentration of particles derived from Lorenz-Mie calculation of OPC scattering (μg/m³)
DateTimeUTC,F1_M11,P_M11,Q1_M11,Q2_M11,T1_M11,T2_M11,T3_M11,T4_M11,T5_M11,U1_M11,ZSPAN_M11,X0_M11,X2_M11,X1_M11
2023-11-07 23:00:00,SystemResetWarning,0820.7,5.00,000.00,027.9,027.0,000.0,036.0,029.6,10.7,0000.0,0020.75,0004.50,0002.66
2023-11-07 23:01:00,SystemResetWarning,0820.8,5.00,000.00,027.9,027.1,000.0,036.0,029.6,10.7,0000.0,0020.62,0004.58,0002.69
2023-11-07 23:02:00,SystemResetWarning,0820.8,4.99,000.00,028.0,026.2,000.0,036.0,029.6,10.8,0000.0,0020.18,0004.58,0002.75
2023-11-07 23:03:00,SystemResetWarning,0820.8,5.00,000.00,027.9,024.1,000.0,036.0,029.2,10.8,0000.0,0019.31,0004.66,0002.81
2023-11-07 23:04:00,SystemResetWarning,0820.8,5.02,000.00,027.7,023.5,000.0,035.9,029.0,10.7,0000.0,0018.90,0004.72,0002.87
2023-11-07 23:05:00,SystemResetWarning,0820.8,5.00,000.00,027.6,023.8,000.0,035.9,028.5,10.9,0000.0,0016.81,0004.70,0002.88
2023-11-07 23:06:00,SystemResetWarning,0820.8,4.99,000.00,027.5,024.2,000.0,035.8,028.5,10.9,0000.0,0016.10,0004.74,0002.93
2023-11-07 23:07:00,SystemResetWarning,0820.8,5.00,000.00,027.5,024.7,000.0,035.8,028.6,10.9,0000.0,0017.70,0004.78,0002.96
2023-11-07 23:08:00,SystemResetWarning,0820.8,5.00,000.00,027.5,025.1,000.0,035.8,028.8,11.0,0000.0,0017.93,0004.77,0003.00
2023-11-07 23:09:00,SystemResetWarning,0820.8,5.01,000.00,027.5,025.5,000.0,035.8,028.9,10.9,0000.0,0018.72,0004.77,0003.05
2023-11-07 23:10:00,SystemResetWarning,0820.8,4.99,000.00,027.5,025.8,000.0,035.8,029.0,10.7,0000.0,0019.45,0004.83,0003.09
2023-11-07 23:11:00,SystemResetWarning,0820.8,4.99,000.00,027.5,026.1,000.0,035.8,029.1,10.7,0000.0,0018.86,0004.84,0003.12
2023-11-07 23:12:00,SystemResetWarning,0820.9,5.00,000.00,027.6,026.3,000.0,035.8,029.2,10.6,0000.0,0018.61,0004.77,0003.12
2023-11-07 23:13:00,SystemResetWarning,0820.9,5.01,000.00,027.6,026.5,000.0,035.8,029.3,10.6,0000.0,0018.90,0004.76,0003.11
2023-11-07 23:14:00,SystemResetWarning,0821.2,5.01,000.00,027.7,026.7,000.0,035.8,029.4,10.6,0000.0,0019.10,0004.75,0003.12
2023-11-07 23:15:00,SystemResetWarning,0821.1,5.00,000.00,027.8,026.8,000.0,035.8,029.5,10.6,0000.0,0017.81,0004.71,0003.11
2023-11-07 23:16:00,SystemResetWarning,0821.1,5.00,000.00,027.8,026.9,000.0,035.9,029.5,10.7,0000.0,0017.10,0004.71,0003.12
2023-11-07 23:17:00,SystemResetWarning,0821.1,4.98,000.00,027.8,025.8,000.0,035.9,029.4,11.0,0000.0,0017.60,0004.69,0003.12
2023-11-07 23:18:00,SystemResetWarning,0821.1,5.01,000.00,027.7,023.7,000.0,035.8,029.0,11.4,0000.0,0016.76,0004.64,0003.11
2023-11-07 23:19:00,SystemResetWarning,0821.1,5.00,000.00,027.6,023.2,000.0,035.8,028.8,11.6,0000.0,0016.49,0004.64,0003.12
2023-11-07 23:20:00,SystemResetWarning,0821.1,5.02,000.00,027.5,023.6,000.0,035.8,028.5,12.0,0000.0,0016.90,0004.63,0003.10
2023-11-07 23:21:00,SystemResetWarning,0821.4,4.99,000.00,027.3,024.1,000.0,035.7,028.4,12.2,0000.0,0017.32,0004.54,0003.07
2023-11-07 23:22:00,SystemResetWarning,0821.2,4.99,000.00,027.3,024.6,000.0,035.7,028.5,12.4,0000.0,0018.59,0004.51,0003.00
2023-11-07 23:23:00,SystemResetWarning,0821.2,5.00,000.00,027.3,025.0,000.0,035.7,028.6,12.3,0000.0,0019.61,0004.55,0002.95
2023-11-07 23:24:00,SystemResetWarning,0821.2,5.01,000.00,027.3,025.3,000.0,035.6,028.8,12.3,0000.0,0020.10,0004.62,0002.90
2023-11-07 23:25:00,SystemResetWarning,0821.3,5.01,000.00,027.4,025.6,000.0,035.6,028.9,12.3,0000.0,0021.53,0004.62,0002.83
2023-11-07 23:26:00,SystemResetWarning,0821.3,5.00,000.00,027.4,025.9,000.0,035.6,029.0,12.4,0000.0,0025.16,0004.66,0002.76
2023-11-07 23:27:00,SystemResetWarning,0821.3,4.99,000.00,027.4,026.1,000.0,035.6,029.1,12.3,0000.0,0026.00,0004.72,0002.71
2023-11-07 23:28:00,SystemResetWarning,0821.5,4.99,000.00,027.5,026.3,000.0,035.7,029.2,12.4,0000.0,0026.42,0004.77,0002.66
2023-11-07 23:29:00,SystemResetWarning,0822.0,5.00,000.00,027.6,026.5,000.0,035.7,029.2,12.5,0000.0,0027.18,0004.83,0002.61
2023-11-07 23:30:00,SystemResetWarning,0822.0,5.01,000.00,027.6,026.6,000.0,035.7,029.3,12.5,0000.0,0028.36,0004.83,0002.55
2023-11-07 23:31:00,SystemResetWarning,0821.7,5.01,000.00,027.7,026.8,000.0,035.7,029.4,12.5,0000.0,0029.36,0004.83,0002.49
2023-11-07 23:32:00,SystemResetWarning,0821.8,5.00,000.00,027.7,026.9,000.0,035.8,029.4,12.5,0000.0,0028.80,0004.82,0002.45
2023-11-07 23:33:00,SystemResetWarning,0821.5,5.00,000.00,027.8,027.0,000.0,035.8,029.5,12.4,0000.0,0030.37,0004.78,0002.44
2023-11-07 23:34:00,SystemResetWarning,0821.6,4.99,000.00,027.8,027.1,000.0,035.8,029.5,12.4,0000.0,0031.50,0004.71,0002.41
2023-11-07 23:35:00,SystemResetWarning,0821.6,4.99,000.00,027.9,027.2,000.0,035.9,029.6,12.4,0000.0,0032.20,0004.62,0002.38
2023-11-07 23:36:00,SystemResetWarning,0821.6,4.99,000.00,027.9,027.2,000.0,035.9,029.6,12.4,0000.0,0032.29,0004.58,0002.36
2023-11-07 23:37:00,SystemResetWarning,0821.6,5.00,000.00,028.0,027.3,000.0,036.0,029.7,12.3,0000.0,0029.52,0004.52,0002.35
2023-11-07 23:38:00,SystemResetWarning,0821.6,5.01,000.00,028.0,027.4,000.0,036.0,029.7,12.3,0000.0,0029.29,0004.44,0002.32
2023-11-07 23:39:00,SystemResetWarning,0821.7,5.00,000.00,028.1,027.4,000.0,036.1,029.8,12.3,0000.0,0029.81,0004.34,0002.27
2023-11-07 23:40:00,SystemResetWarning,0821.7,5.00,000.00,028.1,027.5,000.0,036.1,029.8,12.3,0000.0,0028.45,0004.23,0002.24
2023-11-07 23:41:00,SystemResetWarning,0821.8,5.01,000.00,028.2,027.5,000.0,036.1,029.8,12.2,0000.0,0028.14,0004.14,0002.21
2023-11-07 23:42:00,SystemResetWarning,0821.8,4.99,000.00,028.2,026.4,000.0,036.2,029.8,12.2,0000.0,0026.35,0004.11,0002.19
2023-11-07 23:43:00,SystemResetWarning,0821.8,5.00,000.00,028.1,024.0,000.0,036.1,029.3,12.3,0000.0,0025.17,0004.08,0002.18
2023-11-07 23:44:00,SystemResetWarning,0821.7,5.03,000.00,027.9,023.3,000.0,036.1,029.1,12.3,0000.0,0022.47,0004.06,0002.17
2023-11-07 23:45:00,SystemResetWarning,0821.8,5.00,000.00,027.8,023.6,000.0,036.0,028.7,12.4,0000.0,0020.92,0004.06,0002.15
2023-11-07 23:46:00,SystemResetWarning,0821.8,5.00,000.00,027.6,024.1,000.0,036.0,028.6,12.6,0000.0,0019.68,0003.99,0002.13
2023-11-07 23:47:00,SystemResetWarning,0821.8,5.01,000.00,027.5,024.6,000.0,035.9,028.7,12.6,0000.0,0018.31,0003.92,0002.10
2023-11-07 23:48:00,SystemResetWarning,0821.8,5.00,000.00,027.5,025.0,000.0,035.9,028.8,12.7,0000.0,0017.02,0003.91,0002.09
2023-11-07 23:49:00,SystemResetWarning,0821.9,5.01,000.00,027.5,025.4,000.0,035.9,028.9,12.8,0000.0,0016.43,0003.88,0002.09
2023-11-07 23:50:00,SystemResetWarning,0822.0,5.00,000.00,027.5,025.7,000.0,035.9,029.0,12.8,0000.0,0015.99,0003.87,0002.09
2023-11-07 23:51:00,SystemResetWarning,0821.9,5.00,000.00,027.6,026.0,000.0,035.9,029.1,12.8,0000.0,0016.40,0003.87,0002.09
2023-11-07 23:52:00,SystemResetWarning,0822.0,5.00,000.00,027.6,026.2,000.0,035.9,029.2,12.8,0000.0,0016.83,0003.90,0002.09
2023-11-07 23:53:00,SystemResetWarning,0822.0,5.00,000.00,027.6,026.4,000.0,035.9,029.2,12.8,0000.0,0016.86,0003.89,0002.08
2023-11-07 23:54:00,SystemResetWarning,0822.0,5.00,000.00,027.7,026.6,000.0,035.9,029.3,12.7,0000.0,0017.48,0003.90,0002.07
2023-11-07 23:55:00,SystemResetWarning,0822.0,5.00,000.00,027.7,026.7,000.0,035.9,029.4,12.8,0000.0,0017.38,0003.91,0002.06
2023-11-07 23:56:00,SystemResetWarning,0822.0,5.00,000.00,027.8,026.8,000.0,035.9,029.4,12.7,0000.0,0016.43,0003.89,0002.06
2023-11-07 23:57:00,SystemResetWarning,0822.1,5.00,000.00,027.8,026.9,000.0,036.0,029.4,12.6,0000.0,0015.69,0003.90,0002.06
2023-11-07 23:58:00,SystemResetWarning,0822.1,5.00,000.00,027.9,027.0,000.0,036.0,029.5,12.7,0000.0,0015.86,0003.89,0002.05
2023-11-07 23:59:00,SystemResetWarning,0822.2,5.00,000.00,027.9,027.1,000.0,036.0,029.5,12.7,0000.0,0016.29,0003.89,0002.04
